Regional Weather Roundup
Issued by NWS

Home | Current Version | Previous Version | Graphics & Text | Print | Product List | Glossary On
Versions: 1 2 3 4 5 6 7 8 9 10 11 12 13 14 15 16 17 18 19 20 21 22 23 24 25 26 27 28 29 30 31 32 33 34 35 36 37 38 39 40 41 42 43 44 45 46 47 48 49 50
000
ASUS43 KLOT 231110
RWRIL

ILLINOIS REGIONAL WEATHER ROUNDUP
NATIONAL WEATHER SERVICE CHICAGO/ROMEOVILLE IL
600 AM CDT TUE SEP 23 2014

NOTE: "FAIR" INDICATES FEW OR NO CLOUDS BELOW 12,000 FEET WITH NO
SIGNIFICANT WEATHER AND/OR OBSTRUCTIONS TO VISIBILITY.

* THESE STATIONS ARE NOT UNDER NWS QUALITY CONTROL. THEY ALSO MAY NOT
  REPORT WEATHER SUCH AS PRECIPITATION OR FOG.

ILZ001-002-007-009-015-016-024-231200-
NORTHWEST ILLINOIS

CITY           SKY/WX    TMP DP  RH WIND       PRES   REMARKS
MOLINE         CLEAR     43  41  93 CALM      30.29R
STERLING*      CLEAR     43  39  87 CALM      30.30R
SAVANNA*         N/A     44  42  95 CALM      30.29R FOG
$$

ILZ003-004-008-010-011-017-018-231200-
NORTH CENTRAL ILLINOIS

CITY           SKY/WX    TMP DP  RH WIND       PRES   REMARKS
ROCKFORD       CLEAR     45  42  89 CALM      30.32R
FREEPORT*      CLEAR     42  40  93 CALM      30.31S
ROCHELLE*      CLEAR     41  40  95 SE3       30.30R
DE KALB*       CLEAR     42  41  95 S3        30.31S
PERU*          CLEAR     49  44  82 S3        30.31R
$$

ILZ005-006-012>014-019>023-231200-
NORTHEAST ILLINOIS

CITY           SKY/WX    TMP DP  RH WIND       PRES   REMARKS
CHICAGO-OHARE  CLEAR     51  43  74 W3        30.30R
CHICAGO-MIDWAY CLEAR     50  42  74 W3        30.31R
AURORA         CLEAR     42  39  89 CALM      30.31R
LANSING*       CLEAR     45  43  93 CALM      30.32R
JOLIET*        CLEAR     42  41  95 CALM      30.32S FOG
WAUKEGAN       CLEAR     48  44  86 SW3       30.29R
DUPAGE AIRPORT CLEAR     47  43  86 CALM      30.30R
KANKAKEE*        N/A     43  42  97 CALM      30.32S FOG
WHEELING       CLEAR     49  43  80 CALM      30.32R
MORRIS*        CLEAR     44  44 100 CALM      30.30S
ROMEOVILLE*    CLEAR     44  42  93 CALM      30.31S
NORTHERLY ISL    N/A     55  41  59 SW12        N/A
$$

LMZ740>746-231200-
SOUTHERN LAKE MICHIGAN

STATION/POSITION SKY/WX   TEMP    WIND        PRES    VSBY  WAVE
                          AIR SEA DIR/SP/G                  HT/PER
                          (F)     (DEG/KT/KT) (MB)    (MI)  (FT/S)
SOUTHERN BUOY              60 62  230/ 12/ 14 1025.8R         2/ 4
WAUKEGAN HARBOR            53     260/ 11/ 14   N/A
BURNHAM HARBOR             54     240/  8/ 13   N/A
CALUMET HARBOR             51     230/  5/  7 1024.9R
MICHIGAN CITY 6N           56 63  200/ 10/ 12   N/A           1/ 2
ST. JOSEPH                 58 64  180/  8/ 12   N/A           1/ 3
$$

ILZ025>027-034>036-040-047-049-050-058-095>099-231200-
WEST-CENTRAL ILLINOIS

CITY           SKY/WX    TMP DP  RH WIND       PRES   REMARKS
QUINCY         CLEAR     51  41  68 SE6       30.27R
GALESBURG*     CLEAR    N/A N/A N/A E5        30.29S
MACOMB*        CLEAR     41  40  99 CALM      30.31R
JACKSONVILLE*  CLEAR     45  42  91 E5        30.30S
PITTSFIELD*    PTCLDY    46  44  91 CALM      30.30R
$$

ILZ028>032-037-038-041>044-048-051>054-059>061-231200-
CENTRAL ILLINOIS

CITY           SKY/WX    TMP DP  RH WIND       PRES   REMARKS
PONTIAC        CLEAR     43  43 100 CALM      30.31R
BLOOMINGTON    CLEAR     47  43  86 S8        30.32R
DECATUR        CLEAR     44  41  89 CALM      30.31R
PEORIA         CLEAR     49  45  86 CALM      30.31R
LACON*         CLEAR     43  41  93 CALM      30.30S
LINCOLN*       CLEAR     45  43  91 CALM      30.30R
SPRINGFIELD    CLEAR     47  42  83 E5        30.30R
TAYLORVILLE    CLEAR     45  43  93 CALM      30.30R
$$

ILZ033-039-045-046-055>057-062-063-231200-
EAST-CENTRAL ILLINOIS

CITY           SKY/WX    TMP DP  RH WIND       PRES   REMARKS
CHAMPAIGN      CLEAR     48  45  89 SE7       30.32R
DANVILLE*      CLEAR     42  41  98 CALM      30.29S FOG
RANTOUL*       CLEAR     47  43  86 CALM      30.32S
MATTOON        CLEAR     47  45  93 CALM      30.30S
PARIS*         CLEAR     40  40 100 CALM      30.32S FOG
$$

ILZ079-100>102-231200-
SOUTHWEST ILLINOIS

CITY           SKY/WX    TMP DP  RH WIND       PRES   REMARKS
ALTON          PTCLDY    46  45  95 CALM      30.30R
BELLEVILLE     PTCLDY    47  47  99 CALM      30.28S
CAHOKIA*       FOG       45  44  97 CALM      30.29R VSB 3/4
SPARTA*        PTCLDY    44  43  97 CALM      30.30R FOG
$$

ILZ064>066-069>071-074>076-080>082-084>086-088>090-092>094-231200-
SOUTH-CENTRAL ILLINOIS

CITY           SKY/WX    TMP DP  RH WIND       PRES   REMARKS
CARBONDALE     FOG       43  42  97 CALM      30.29S VSB 1/4
CAIRO*         CLEAR     48  46  91 CALM      30.27S
EFFINGHAM*     CLEAR     44  42  91 CALM      30.30S FOG
MARION         FOG       46  45  93 CALM      30.30R VSB 1
MT. VERNON     CLEAR     43  37  81 CALM      30.30R
CENTRALIA*     CLEAR     42  40  93 CALM      30.29S
SALEM*         CLEAR     46  45  96 CALM      30.30S
METROPOLIS*    CLEAR     45  45 100 CALM      30.27R
$$

ILZ067-068-072-073-078-083-087-091-231200-
SOUTHEAST ILLINOIS

CITY           SKY/WX    TMP DP  RH WIND       PRES   REMARKS
LAWRENCEVILLE  PTCLDY    44  42  93 CALM      30.32R FOG
FLORA*         CLEAR     42  42  99 CALM      30.31R
FAIRFIELD*     CLEAR    N/A N/A N/A CALM      30.30S
HARRISBURG*    CLEAR     44  44 100 CALM      30.30S
ROBINSON*      FOG       42  42 100 CALM      30.33R VSB 3/4
CARMI*         CLEAR     44  44 100 CALM      30.30S
$$

ABBREVIATIONS USED IN REMARKS
   TC - TEMPERATURE IN CELSIUS
  WCI - WIND CHILL INDEX
   HX - HEAT INDEX
  VSB - VISIBILITY
$$



USA.gov is the U.S. government's official web portal to all federal, state and local government web resources and services.